TimeMDT,TemperatureF,Dew PointF,Humidity,Sea Level PressureIn,VisibilityMPH,Wind Direction,Wind SpeedMPH,Gust SpeedMPH,PrecipitationIn,Events,Conditions,WindDirDegrees,DateUTC
12:18 AM,21.2,15.8,80,30.44,10.0,SE,8.1,-,N/A,,Clear,130,2014-03-09 07:18:00
12:38 AM,23.0,15.8,74,30.43,10.0,SE,5.8,-,N/A,,Clear,130,2014-03-09 07:38:00
12:57 AM,21.2,12.2,68,30.43,10.0,ESE,6.9,-,N/A,,Clear,120,2014-03-09 07:57:00
1:18 AM,21.2,14.0,74,30.43,10.0,ESE,6.9,-,N/A,,Clear,120,2014-03-09 08:18:00
1:38 AM,21.2,12.2,68,30.43,10.0,ESE,8.1,-,N/A,,Clear,110,2014-03-09 08:38:00
3:00 AM,19.4,12.2,74,30.42,10.0,East,5.8,-,N/A,,Clear,100,2014-03-09 09:00:00
3:18 AM,19.4,12.2,74,30.42,10.0,ESE,4.6,-,N/A,,Clear,120,2014-03-09 09:18:00
3:37 AM,21.2,14.0,74,30.42,10.0,ESE,4.6,-,N/A,,Clear,120,2014-03-09 09:37:00
3:57 AM,19.4,10.4,68,30.40,10.0,SE,9.2,-,N/A,,Clear,130,2014-03-09 09:57:00
4:17 AM,21.2,12.2,68,30.40,10.0,ESE,5.8,-,N/A,,Clear,120,2014-03-09 10:17:00
4:37 AM,21.2,12.2,68,30.40,10.0,ESE,4.6,-,N/A,,Clear,110,2014-03-09 10:37:00
5:00 AM,21.2,10.4,63,30.39,10.0,ESE,6.9,-,N/A,,Clear,110,2014-03-09 11:00:00
5:19 AM,19.4,10.4,68,30.40,10.0,ESE,5.8,-,N/A,,Clear,120,2014-03-09 11:19:00
5:38 AM,21.2,12.2,68,30.40,10.0,East,6.9,-,N/A,,Clear,100,2014-03-09 11:38:00
6:00 AM,19.4,10.4,68,30.40,10.0,ESE,5.8,-,N/A,,Clear,120,2014-03-09 12:00:00
6:19 AM,19.4,8.6,63,30.40,10.0,ESE,5.8,-,N/A,,Clear,120,2014-03-09 12:19:00
6:38 AM,21.2,10.4,63,30.41,10.0,East,4.6,-,N/A,,Clear,100,2014-03-09 12:38:00
7:37 AM,19.4,10.4,68,30.44,10.0,East,5.8,-,N/A,,Clear,100,2014-03-09 13:37:00
7:57 AM,19.4,8.6,63,30.42,10.0,SE,8.1,-,N/A,,Clear,130,2014-03-09 13:57:00
8:17 AM,19.4,10.4,68,30.42,10.0,ESE,8.1,-,N/A,,Clear,120,2014-03-09 14:17:00
8:38 AM,23.0,8.6,54,30.41,10.0,Calm,Calm,-,N/A,,Clear,0,2014-03-09 14:38:00
9:00 AM,24.8,8.6,50,30.41,10.0,ESE,9.2,-,N/A,,Clear,120,2014-03-09 15:00:00
9:18 AM,26.6,10.4,51,30.42,10.0,ESE,6.9,-,N/A,,Clear,110,2014-03-09 15:18:00
9:38 AM,28.4,12.2,51,30.43,10.0,SE,4.6,-,N/A,,Clear,130,2014-03-09 15:38:00
9:57 AM,28.4,10.4,47,30.42,10.0,ESE,5.8,-,N/A,,Clear,120,2014-03-09 15:57:00
10:18 AM,32.0,10.4,41,30.42,10.0,East,4.6,-,N/A,,Clear,100,2014-03-09 16:18:00
10:38 AM,35.6,10.4,35,30.43,10.0,Calm,Calm,-,N/A,,Clear,0,2014-03-09 16:38:00
10:58 AM,35.6,6.8,30,30.43,10.0,Calm,Calm,-,N/A,,Clear,0,2014-03-09 16:58:00
11:19 AM,39.2,10.4,31,30.43,10.0,Calm,Calm,-,N/A,,Clear,0,2014-03-09 17:19:00
11:38 AM,39.2,3.2,22,30.42,10.0,Calm,Calm,-,N/A,,Clear,0,2014-03-09 17:38:00
11:58 AM,42.8,3.2,19,30.42,10.0,Calm,Calm,-,N/A,,Clear,0,2014-03-09 17:58:00
12:20 PM,44.6,-2.2,14,30.42,10.0,Calm,Calm,-,N/A,,Clear,0,2014-03-09 18:20:00
12:37 PM,46.4,5.0,18,30.41,10.0,Calm,Calm,-,N/A,,Clear,0,2014-03-09 18:37:00
12:58 PM,48.2,8.6,20,30.41,10.0,WSW,5.8,-,N/A,,Clear,250,2014-03-09 18:58:00
1:38 PM,48.2,10.4,22,30.39,10.0,West,9.2,-,N/A,,Clear,260,2014-03-09 19:38:00
1:57 PM,48.2,10.4,22,30.38,10.0,West,9.2,-,N/A,,Clear,260,2014-03-09 19:57:00
2:18 PM,48.2,6.8,19,30.37,10.0,West,10.4,-,N/A,,Clear,260,2014-03-09 20:18:00
2:38 PM,50.0,3.2,15,30.37,10.0,West,9.2,-,N/A,,Clear,260,2014-03-09 20:38:00
2:58 PM,50.0,-0.4,13,30.36,10.0,West,8.1,-,N/A,,Clear,260,2014-03-09 20:58:00
3:18 PM,50.0,-0.4,13,30.35,10.0,West,10.4,-,N/A,,Clear,260,2014-03-09 21:18:00
3:58 PM,50.0,-0.4,13,30.35,10.0,West,12.7,-,N/A,,Clear,260,2014-03-09 21:58:00
4:19 PM,50.0,1.4,14,30.34,10.0,West,13.8,-,N/A,,Clear,260,2014-03-09 22:19:00
4:38 PM,50.0,1.4,14,30.33,10.0,West,12.7,18.4,N/A,,Clear,260,2014-03-09 22:38:00
4:57 PM,48.2,-0.4,13,30.33,10.0,West,12.7,17.3,N/A,,Clear,260,2014-03-09 22:57:00
5:40 PM,46.4,-0.4,14,30.33,10.0,West,8.1,-,N/A,,Clear,260,2014-03-09 23:40:00
5:58 PM,46.4,3.2,17,30.33,10.0,WSW,8.1,-,N/A,,Clear,250,2014-03-09 23:58:00
6:17 PM,48.2,5.0,17,30.33,10.0,WSW,5.8,-,N/A,,Clear,250,2014-03-10 00:17:00
6:37 PM,46.4,6.8,20,30.33,10.0,West,4.6,-,N/A,,Clear,260,2014-03-10 00:37:00
6:59 PM,46.4,8.6,22,30.33,10.0,Calm,Calm,-,N/A,,Clear,0,2014-03-10 00:59:00
7:18 PM,44.6,8.6,23,30.33,10.0,Calm,Calm,-,N/A,,Clear,0,2014-03-10 01:18:00
7:38 PM,42.8,10.4,27,30.34,10.0,Calm,Calm,-,N/A,,Clear,0,2014-03-10 01:38:00
8:17 PM,37.4,14.0,38,30.34,10.0,ESE,8.1,-,N/A,,Clear,110,2014-03-10 02:17:00
8:40 PM,35.6,14.0,41,30.35,10.0,Calm,Calm,-,N/A,,Clear,0,2014-03-10 02:40:00
8:58 PM,35.6,14.0,41,30.36,10.0,Calm,Calm,-,N/A,,Clear,0,2014-03-10 02:58:00
9:18 PM,35.6,12.2,38,30.36,10.0,ESE,4.6,-,N/A,,Clear,110,2014-03-10 03:18:00
9:40 PM,33.8,14.0,44,30.37,10.0,ESE,6.9,-,N/A,,Clear,120,2014-03-10 03:40:00
9:57 PM,33.8,12.2,41,30.37,10.0,ESE,8.1,-,N/A,,Clear,110,2014-03-10 03:57:00
10:18 PM,33.8,12.2,41,30.38,10.0,SE,5.8,-,N/A,,Clear,130,2014-03-10 04:18:00
10:38 PM,32.0,12.2,44,30.37,10.0,ESE,5.8,-,N/A,,Clear,120,2014-03-10 04:38:00
10:58 PM,33.8,12.2,41,30.37,10.0,ESE,5.8,-,N/A,,Clear,120,2014-03-10 04:58:00
11:18 PM,30.2,12.2,47,30.37,10.0,East,3.5,-,N/A,,Clear,100,2014-03-10 05:18:00
11:38 PM,30.2,12.2,47,30.37,10.0,ESE,6.9,-,N/A,,Clear,120,2014-03-10 05:38:00
11:59 PM,33.8,12.2,41,30.36,10.0,SE,8.1,-,N/A,,Clear,140,2014-03-10 05:59:00
12:18 AM,32.0,12.2,44,30.35,10.0,ESE,6.9,-,N/A,,Clear,110,2014-03-10 06:18:00
12:58 AM,30.2,12.2,47,30.34,10.0,ESE,8.1,-,N/A,,Clear,110,2014-03-10 06:58:00